Location: Bothell
(47.7630°N, 122.2040°W)
Time: 01:24:38
(UTC-08:00)

Amateur Radio Satellites - All Passes

Search period start: 13 December 2017 00:54
Search period end: 14 December 2017 00:54
Location: Bothell, 47.7630°N, 122.2040°W

Satellite Date Start Highest point End Downlink Frequencies (MHz)
Time Altitude Azimuth
SPROUT 13 Dec 00:55:15 00:58:03 17° 269° (W) 01:00:53 437.525
NANOSAT C BR1 13 Dec 00:59:01 01:03:00 43° 290° (WNW) 01:06:59 145.865
DX 1 13 Dec 00:59:11 01:03:35 86° 75° (ENE) 01:08:00 434.975-435.025
SO-50 13 Dec 01:06:20 01:10:41 40° 240° (WSW) 01:15:04 436.795
EO-79 13 Dec 01:13:16 01:16:55 29° 294° (WNW) 01:20:33 145.935-145.965
AO-85 13 Dec 01:14:48 01:16:55 14° 337° (NNW) 01:19:08 145.980
BUGSAT 1 13 Dec 01:21:48 01:25:51 74° 103° (ESE) 01:29:53 437.445
AO-91 13 Dec 01:22:42 01:25:59 33° 97° (E) 01:29:07 145.960
PCSat 13 Dec 01:29:27 01:32:27 15° 24° (NNE) 01:35:28 145.827
POLYITAN 1 13 Dec 01:36:16 01:39:13 19° 298° (WNW) 01:42:09 437.675
MOZHAYETS 4 13 Dec 01:36:39 01:40:39 31° 66° (ENE) 01:44:40
VELOX 1 13 Dec 01:37:10 01:38:43 12° 272° (W) 01:40:17 145.980
BEESAT 13 Dec 01:40:53 01:44:52 27° 63° (ENE) 01:48:51 436.000
50 SAT 13 Dec 01:43:26 01:45:58 22° 264° (W) 01:48:33 437.505
AO-7 13 Dec 01:47:46 01:50:39 12° 82° (E) 01:53:32 .
QB50P2 13 Dec 02:03:54 02:04:26 10° 304° (NW) 02:04:58 145.880/145.840
Oscar 19 13 Dec 02:03:57 02:09:10 86° 288° (WNW) 02:14:23 437.125/150
FALCONSAT 3 13 Dec 02:07:13 02:08:16 11° 189° (S) 02:09:20 435.103
ITUPSAT 1 13 Dec 02:07:15 02:11:45 44° 68° (ENE) 02:16:17 437.325
DUCHIFAT 1 13 Dec 02:11:16 02:12:43 12° 303° (WNW) 02:14:11 145.980
UKube-1 13 Dec 02:24:55 02:28:15 22° 267° (W) 02:31:37 .
Gurwin Techsat 1B 13 Dec 02:30:46 02:36:06 71° 288° (WNW) 02:41:22 435.225
DX 1 13 Dec 02:39:09 02:40:22 11° 272° (W) 02:41:36 434.975-435.025
M-CUBED/EXP-1 PRIME 13 Dec 02:40:14 02:42:21 13° 92° (E) 02:44:26 437.505
YUBILEINY 13 Dec 02:43:41 02:52:00 49° 88° (E) 03:00:23 435.215
RS-15 13 Dec 02:43:59 02:49:55 16° 267° (W) 02:55:44 29.354- 29.394
CUBESAT XI-V 13 Dec 02:54:27 02:58:53 45° 69° (ENE) 03:03:22 437.345
BUGSAT 1 13 Dec 02:58:49 03:00:40 13° 301° (WNW) 03:02:30 437.445
AO-91 13 Dec 02:59:49 03:02:15 17° 297° (WNW) 03:04:36 145.960
PCSat 13 Dec 03:12:03 03:17:17 46° 48° (NE) 03:22:28 145.827
ITAMSAT 1 13 Dec 03:12:26 03:16:48 27° 94° (E) 03:21:08 435.822/435.867
MOZHAYETS 4 13 Dec 03:13:40 03:17:46 32° 264° (W) 03:21:53
BEESAT 13 Dec 03:17:58 03:22:28 41° 262° (W) 03:26:58 436.000
BEESAT 3 13 Dec 03:30:43 03:33:35 19° 34° (NE) 03:36:25 437.485
AO-7 13 Dec 03:36:57 03:45:15 59° 104° (ESE) 03:53:28 .
KKS-1 13 Dec 03:39:36 03:43:28 29° 65° (ENE) 03:47:21 437.445
Oscar 19 13 Dec 03:44:49 03:47:45 15° 305° (NW) 03:50:40 437.125/150
ITUPSAT 1 13 Dec 03:45:55 03:49:46 24° 266° (W) 03:53:39 437.325
BEESAT 2 13 Dec 04:06:21 04:08:53 16° 30° (NNE) 04:11:23 435.950
M-CUBED/EXP-1 PRIME 13 Dec 04:12:42 04:17:19 81° 292° (WNW) 04:21:41 437.505
Gurwin Techsat 1B 13 Dec 04:12:45 04:15:07 13° 307° (NW) 04:17:29 435.225
STARS 13 Dec 04:27:28 04:31:29 36° 67° (ENE) 04:35:30 437.465
CUBESAT XI-V 13 Dec 04:32:45 04:36:27 23° 268° (W) 04:40:11 437.345
AO-85 13 Dec 04:38:54 04:41:43 16° 27° (NNE) 04:44:38 145.980
YUBILEINY 13 Dec 04:40:35 04:48:55 45° 290° (WNW) 04:57:20 435.215
ITAMSAT 1 13 Dec 04:51:31 04:56:28 46° 292° (WNW) 05:01:23 435.822/435.867
PCSat 13 Dec 04:55:42 05:00:34 34° 248° (WSW) 05:05:23 145.827
DOVE 4 13 Dec 05:03:19 05:07:54 61° 100° (E) 05:12:12 437.250
XW-2F 13 Dec 05:05:43 05:06:15 10° 87° (E) 05:06:47 145.980 - 146.000
BEESAT 3 13 Dec 05:07:38 05:11:36 77° 234° (SW) 05:15:28 437.485
KKS-1 13 Dec 05:15:53 05:19:56 33° 263° (W) 05:24:01 437.445
XW-2C 13 Dec 05:17:42 05:20:05 16° 91° (E) 05:22:27 145.795 - 145.815
AO-7 13 Dec 05:30:08 05:37:43 40° 305° (NW) 05:45:18 .
FO-29 13 Dec 05:30:58 05:35:52 18° 49° (NE) 05:40:43 435.910
BEESAT 2 13 Dec 05:43:14 05:47:18 74° 51° (NE) 05:51:17 435.950
M-CUBED/EXP-1 PRIME 13 Dec 05:48:38 05:50:54 14° 310° (NW) 05:53:08 437.505
STRAND 1 13 Dec 05:50:07 05:54:43 35° 65° (ENE) 05:59:20 437.568
LilacSat-2 13 Dec 05:50:59 05:54:39 38° 98° (E) 05:58:16 437.200
HO-68 13 Dec 06:02:03 06:07:25 22° 90° (E) 06:12:45 435.675
STARS 13 Dec 06:04:10 06:07:53 26° 265° (W) 06:11:36 437.465
CUTE-I 13 Dec 06:04:52 06:09:54 40° 97° (E) 06:14:52 437.470
XW-2D 13 Dec 06:07:35 06:11:24 56° 101° (E) 06:15:11 145.860 - 145.880
AO-85 13 Dec 06:18:27 06:23:03 56° 48° (NE) 06:28:01 145.980
NUDT-PHONESAT 13 Dec 06:19:36 06:23:16 50° 99° (E) 06:26:56 437.300
KAITUO 1B 13 Dec 06:20:16 06:24:01 55° 100° (E) 06:27:44 145.475/437.950
XW-2B 13 Dec 06:23:22 06:27:15 82° 104° (ESE) 06:31:06 145.730 - 145.750
SEEDS 13 Dec 06:27:22 06:30:00 16° 90° (E) 06:32:36 437.485
XW-2F 13 Dec 06:36:59 06:40:51 74° 285° (WNW) 06:44:39 145.980 - 146.000
DOVE 4 13 Dec 06:42:01 06:45:05 18° 301° (WNW) 06:48:01 437.250
CUTE 1.7 + AOD 2 13 Dec 06:46:01 06:50:03 38° 97° (E) 06:54:03 437.475
YUBILEINY 13 Dec 06:46:26 06:48:44 11° 318° (NW) 06:51:02 435.215
XW-2C 13 Dec 06:50:48 06:54:31 47° 288° (WNW) 06:58:14 145.795 - 145.815
AAUSAT CUBESAT 2 13 Dec 06:52:01 06:53:50 12° 88° (E) 06:55:38 437.432
NO-84 13 Dec 07:00:30 07:03:01 23° 133° (SE) 07:05:40 435.350 FM
FO-29 13 Dec 07:11:51 07:19:29 64° 69° (ENE) 07:27:13 435.910
CUBEBUG 2 13 Dec 07:16:45 07:20:52 48° 100° (E) 07:25:03 437.445
UWE-3 13 Dec 07:20:03 07:23:52 30° 96° (E) 07:27:44 435.000/436.395/437.385
XW-2A 13 Dec 07:20:17 07:22:59 21° 94° (E) 07:25:40 145.665 - 145.685
BEESAT 2 13 Dec 07:22:26 07:24:27 13° 250° (WSW) 07:26:27 435.950
AO-7 13 Dec 07:24:57 07:28:13 13° 329° (NNW) 07:31:29 .
LilacSat-2 13 Dec 07:25:46 07:28:41 20° 295° (WNW) 07:31:35 437.200
STRAND 1 13 Dec 07:29:11 07:33:52 36° 263° (W) 07:38:35 437.568
XW-2D 13 Dec 07:42:56 07:45:08 15° 298° (WNW) 07:47:19 145.860 - 145.880
CUTE-I 13 Dec 07:45:07 07:49:51 33° 296° (WNW) 07:54:33 437.470
ZACube-1 13 Dec 07:48:41 07:52:37 33° 96° (E) 07:56:36 437.345
HO-68 13 Dec 07:48:45 07:55:57 81° 290° (WNW) 08:03:06 435.675
O/OREOS (USA 219) 13 Dec 07:49:40 07:52:40 17° 100° (E) 07:55:40 437.305
NUDT-PHONESAT 13 Dec 07:54:29 07:56:43 15° 297° (WNW) 07:58:58 437.300
KAITUO 1B 13 Dec 07:55:24 07:57:34 15° 298° (WNW) 07:59:43 145.475/437.950
TIGRISAT 13 Dec 07:58:33 08:01:43 20° 63° (ENE) 08:04:51 435.000
AO-85 13 Dec 07:59:18 08:03:16 26° 245° (WSW) 08:07:26 145.980
XW-2B 13 Dec 07:59:45 08:00:48 11° 301° (WNW) 08:01:52 145.730 - 145.750
UNISAT 6 13 Dec 08:01:06 08:04:30 23° 64° (ENE) 08:07:53 437.425
SEEDS 13 Dec 08:01:50 08:06:01 57° 288° (WNW) 08:10:10 437.485
Oscar 11 13 Dec 08:11:14 08:15:12 33° 96° (E) 08:19:09 .
CUTE 1.7 + AOD 2 13 Dec 08:22:13 08:25:42 24° 295° (WNW) 08:29:10 437.475
AO-73 13 Dec 08:23:25 08:27:44 66° 101° (E) 08:32:07 145.935
AAUSAT CUBESAT 2 13 Dec 08:25:35 08:29:46 70° 286° (WNW) 08:33:54 437.432
NO-84 13 Dec 08:36:53 08:39:59 53° 333° (NNW) 08:43:24 435.350 FM
XW-2A 13 Dec 08:52:43 08:55:40 27° 291° (WNW) 08:58:36 145.665 - 145.685
CUBEBUG 2 13 Dec 08:54:08 08:57:11 20° 297° (WNW) 09:00:17 437.445
UWE-3 13 Dec 08:56:33 09:00:16 30° 293° (WNW) 09:04:03 435.000/436.395/437.385
FO-29 13 Dec 08:58:03 09:04:54 33° 269° (W) 09:11:52 435.910
PRISM 13 Dec 09:08:21 09:12:08 35° 68° (ENE) 09:15:56 437.425
EO-88 13 Dec 09:10:13 09:12:00 13° 90° (E) 09:13:47 145.990 - 145.960
ZACube-1 13 Dec 09:25:07 09:28:48 28° 294° (WNW) 09:32:34 437.345
O/OREOS (USA 219) 13 Dec 09:27:04 09:31:36 61° 299° (WNW) 09:36:09 437.305
TIGRISAT 13 Dec 09:33:59 09:38:08 46° 261° (W) 09:42:14 435.000
AIST 2D 13 Dec 09:34:26 09:37:04 20° 66° (ENE) 09:39:43 435.315
UNISAT 6 13 Dec 09:36:58 09:41:01 39° 262° (W) 09:45:03 437.425
HO-68 13 Dec 09:37:41 09:42:41 21° 310° (NW) 09:47:40 435.675
DELFI C3 13 Dec 09:41:47 09:45:44 63° 100° (E) 09:49:37 145.870
QB50P2 13 Dec 09:47:06 09:49:26 15° 60° (ENE) 09:51:47 145.880/145.840
Oscar 11 13 Dec 09:47:30 09:51:15 28° 294° (WNW) 09:54:59 .
DUCHIFAT 1 13 Dec 09:55:21 09:57:08 13° 58° (ENE) 09:58:55 145.980
AO-73 13 Dec 10:00:53 10:03:30 16° 299° (WNW) 10:06:09 145.935
Max Valier Satellite 13 Dec 10:10:41 10:14:27 86° 279° (W) 10:18:10 145.860
NO-84 13 Dec 10:14:56 10:17:48 25° 355° (N) 10:20:54 435.350 FM
NANOSAT C BR1 13 Dec 10:19:05 10:22:24 23° 64° (ENE) 10:25:43 145.865
EO-79 13 Dec 10:32:47 10:36:36 35° 68° (ENE) 10:40:25 145.935-145.965
EO-88 13 Dec 10:42:21 10:45:57 52° 287° (WNW) 10:49:31 145.990 - 145.960
PRISM 13 Dec 10:44:02 10:47:28 24° 266° (W) 10:50:54 437.425
POLYITAN 1 13 Dec 10:55:01 10:59:07 58° 72° (ENE) 11:03:15 437.675
AIST 2D 13 Dec 11:06:54 11:10:03 31° 264° (W) 11:13:15 435.315
O/OREOS (USA 219) 13 Dec 11:10:27 11:12:01 11° 320° (NW) 11:13:34 437.305
LO-87 13 Dec 11:17:32 11:21:00 51° 100° (E) 11:24:28 145.935 - 145.965
DELFI C3 13 Dec 11:17:53 11:19:59 14° 299° (WNW) 11:22:06 145.870
nSIGHT-1 13 Dec 11:19:52 11:21:23 13° 135° (SE) 11:22:54 .
QB50P2 13 Dec 11:20:32 11:24:42 69° 257° (WSW) 11:28:55 145.880/145.840
DUCHIFAT 1 13 Dec 11:28:01 11:32:11 82° 256° (WSW) 11:36:22 145.980
ESTCUBE 1 13 Dec 11:40:15 11:44:48 66° 102° (ESE) 11:49:19 437.505/2401.250
VELOX 1 13 Dec 11:45:36 11:47:26 12° 88° (E) 11:49:15 145.980
Oscar 19 13 Dec 11:45:53 11:50:17 30° 63° (ENE) 11:54:44 437.125/150
NO-84 13 Dec 11:52:31 11:55:48 33° 16° (NNE) 11:59:18 435.350 FM
NANOSAT C BR1 13 Dec 11:54:01 11:57:54 38° 262° (W) 12:01:50 145.865
ISS 13 Dec 11:55:27 11:57:57 20° 139° (SE) 12:00:27 437.550
EO-79 13 Dec 12:08:58 12:12:26 25° 266° (W) 12:15:54 145.935-145.965
BUGSAT 1 13 Dec 12:14:15 12:18:19 80° 74° (ENE) 12:22:21 437.445
Gurwin Techsat 1B 13 Dec 12:15:56 12:20:51 40° 66° (ENE) 12:25:48 435.225
AO-91 13 Dec 12:21:38 12:26:23 53° 72° (ENE) 12:30:42 145.960
POLYITAN 1 13 Dec 12:32:51 12:35:16 15° 270° (W) 12:37:43 437.675
SPROUT 13 Dec 12:35:20 12:39:33 63° 101° (E) 12:43:45 437.525
DX 1 13 Dec 12:46:05 12:47:32 11° 88° (E) 12:48:56 434.975-435.025
AO-7 13 Dec 12:48:58 12:55:48 30° 50° (NE) 13:02:40 .
RS-15 13 Dec 12:49:04 12:55:46 17° 94° (E) 13:02:26 29.354- 29.394
YUBILEINY 13 Dec 12:49:24 12:56:56 30° 62° (ENE) 13:04:23 435.215
LO-87 13 Dec 12:52:11 12:54:00 14° 298° (WNW) 12:55:48 145.935 - 145.965
nSIGHT-1 13 Dec 12:53:53 12:57:04 69° 155° (SSE) 13:00:18 .
50 SAT 13 Dec 12:57:15 12:58:10 11° 91° (E) 12:59:04 437.505
ITAMSAT 1 13 Dec 12:59:01 13:00:06 11° 50° (NE) 13:01:12 435.822/435.867
ESTCUBE 1 13 Dec 13:18:09 13:21:07 17° 300° (WNW) 13:24:03 437.505/2401.250
VELOX 1 13 Dec 13:20:00 13:24:26 78° 286° (WNW) 13:28:49 145.980
Oscar 19 13 Dec 13:24:35 13:29:27 42° 262° (W) 13:34:22 437.125/150
M-CUBED/EXP-1 PRIME 13 Dec 13:27:07 13:30:52 28° 58° (ENE) 13:34:46 437.505
NO-84 13 Dec 13:29:36 13:33:21 77° 213° (SSW) 13:37:21 435.350 FM
ISS 13 Dec 13:30:48 13:34:06 83° 333° (NNW) 13:37:25 437.550
BUGSAT 1 13 Dec 13:53:34 13:54:12 10° 272° (W) 13:54:49 437.445
Gurwin Techsat 1B 13 Dec 13:56:07 14:00:52 32° 265° (W) 14:05:38 435.225
AO-91 13 Dec 13:59:26 14:03:01 20° 267° (W) 14:06:24 145.960
UKube-1 13 Dec 14:07:05 14:11:16 47° 100° (E) 14:15:24 .
SPROUT 13 Dec 14:12:23 14:14:58 16° 300° (WNW) 14:17:34 437.525
DX 1 13 Dec 14:19:55 14:24:18 82° 285° (WNW) 14:28:38 434.975-435.025
50 SAT 13 Dec 14:27:20 14:30:22 44° 288° (WNW) 14:33:22 437.505
nSIGHT-1 13 Dec 14:30:20 14:33:26 43° 352° (N) 14:36:33 .
ITAMSAT 1 13 Dec 14:33:24 14:38:31 58° 70° (ENE) 14:43:38 435.822/435.867
DOVE 4 13 Dec 14:36:01 14:38:59 16° 58° (ENE) 14:41:56 437.250
AO-7 13 Dec 14:39:28 14:47:47 82° 251° (WSW) 14:56:12 .
YUBILEINY 13 Dec 14:45:49 14:54:38 74° 265° (W) 15:03:22 435.215
RS-15 13 Dec 14:53:38 15:05:42 64° 117° (ESE) 15:17:37 29.354- 29.394
VELOX 1 13 Dec 14:58:52 15:00:06 11° 305° (NW) 15:01:20 145.980
M-CUBED/EXP-1 PRIME 13 Dec 15:00:58 15:05:02 40° 257° (WSW) 15:09:21 437.505
MOZHAYETS 4 13 Dec 15:04:26 15:08:52 44° 98° (E) 15:13:18
ISS 13 Dec 15:07:42 15:10:51 40° 357° (N) 15:14:00 437.550
NO-84 13 Dec 15:07:59 15:10:11 15° 231° (SW) 15:12:26 435.350 FM
BEESAT 13 Dec 15:14:14 15:18:39 37° 97° (E) 15:23:04 436.000
SO-50 13 Dec 15:23:47 15:27:36 28° 116° (ESE) 15:31:28 436.795
ITUPSAT 1 13 Dec 15:41:31 15:46:17 66° 103° (ESE) 15:51:02 437.325
UKube-1 13 Dec 15:43:45 15:46:59 21° 298° (WNW) 15:50:12 .
CUTE-I 13 Dec 15:52:46 15:56:00 16° 55° (NE) 15:59:13 437.470
DX 1 13 Dec 15:58:20 15:59:44 11° 304° (NW) 16:01:07 434.975-435.025
XW-2C 13 Dec 16:02:47 16:04:41 13° 61° (ENE) 16:06:35 145.795 - 145.815
nSIGHT-1 13 Dec 16:06:53 16:10:01 47° 11° (NNE) 16:13:09 .
DOVE 4 13 Dec 16:10:42 16:15:59 88° 72° (ENE) 16:21:08 437.250
ITAMSAT 1 13 Dec 16:14:23 16:18:21 22° 268° (W) 16:22:19 435.822/435.867
O/OREOS (USA 219) 13 Dec 16:17:16 16:18:33 11° 39° (NE) 16:19:50 437.305
CUBESAT XI-V 13 Dec 16:24:20 16:29:05 70° 102° (ESE) 16:33:46 437.345
HO-68 13 Dec 16:34:45 16:40:27 26° 54° (NE) 16:46:09 435.675
LilacSat-2 13 Dec 16:35:55 16:39:17 30° 68° (ENE) 16:42:42 437.200
AO-7 13 Dec 16:36:17 16:41:49 19° 272° (W) 16:47:25 .
MOZHAYETS 4 13 Dec 16:42:05 16:45:47 24° 296° (WNW) 16:49:30
ISS 13 Dec 16:44:24 16:47:41 59° 17° (NNE) 16:50:57 437.550
YUBILEINY 13 Dec 16:44:48 16:49:48 17° 288° (WNW) 16:54:49 435.215
XW-2D 13 Dec 16:51:37 16:55:12 43° 71° (ENE) 16:58:51 145.860 - 145.880
BEESAT 13 Dec 16:52:12 16:56:20 30° 296° (WNW) 17:00:26 436.000
NUDT-PHONESAT 13 Dec 17:01:26 17:04:50 36° 70° (ENE) 17:08:17 437.300
KKS-1 13 Dec 17:02:53 17:06:58 34° 97° (E) 17:10:59 437.445
KAITUO 1B 13 Dec 17:02:57 17:06:29 40° 71° (ENE) 17:10:02 145.475/437.950
SO-50 13 Dec 17:03:35 17:07:53 44° 316° (NW) 17:12:15 436.795
RS-15 13 Dec 17:06:38 17:18:41 55° 323° (NW) 17:30:31 29.354- 29.394
XW-2B 13 Dec 17:07:17 17:11:01 62° 74° (ENE) 17:14:48 145.730 - 145.750
ITUPSAT 1 13 Dec 17:20:21 17:23:37 19° 301° (WNW) 17:26:54 437.325
XW-2F 13 Dec 17:20:22 17:24:08 84° 76° (ENE) 17:27:58 145.980 - 146.000
SEEDS 13 Dec 17:22:12 17:25:02 18° 62° (ENE) 17:27:55 437.485
CUTE-I 13 Dec 17:29:55 17:35:18 89° 74° (ENE) 17:40:43 437.470
XW-2C 13 Dec 17:34:37 17:38:22 62° 259° (W) 17:42:10 145.795 - 145.815
CUTE 1.7 + AOD 2 13 Dec 17:41:32 17:45:31 41° 70° (ENE) 17:49:33 437.475
nSIGHT-1 13 Dec 17:43:08 17:46:17 51° 210° (SSW) 17:49:24 .
AAUSAT CUBESAT 2 13 Dec 17:45:17 17:47:30 14° 60° (ENE) 17:49:44 437.432
STARS 13 Dec 17:49:04 17:53:14 41° 99° (E) 17:57:21 437.465
DOVE 4 13 Dec 17:51:32 17:54:16 14° 273° (W) 17:56:58 437.250
O/OREOS (USA 219) 13 Dec 17:54:30 17:58:59 59° 61° (ENE) 18:03:24 437.305
XW-2A 13 Dec 17:55:23 17:57:03 13° 63° (ENE) 17:58:44 145.665 - 145.685
PCSat 13 Dec 17:58:46 18:02:25 19° 106° (ESE) 18:06:06 145.827
CUBESAT XI-V 13 Dec 18:02:52 18:05:55 17° 301° (WNW) 18:08:57 437.345
LilacSat-2 13 Dec 18:10:29 18:13:35 23° 266° (W) 18:16:44 437.200
CUBEBUG 2 13 Dec 18:17:54 18:22:02 58° 73° (ENE) 18:26:08 437.445
UWE-3 13 Dec 18:20:14 18:24:01 35° 69° (ENE) 18:27:49 435.000/436.395/437.385
HO-68 13 Dec 18:20:17 18:27:30 80° 254° (WSW) 18:34:45 435.675
ISS 13 Dec 18:21:03 18:24:04 33° 215° (SW) 18:27:03 437.550
XW-2D 13 Dec 18:27:07 18:29:36 17° 269° (W) 18:32:06 145.860 - 145.880
NUDT-PHONESAT 13 Dec 18:36:10 18:38:49 18° 268° (W) 18:41:29 437.300
KAITUO 1B 13 Dec 18:38:05 18:40:38 17° 268° (W) 18:43:12 145.475/437.950
KKS-1 13 Dec 18:39:37 18:43:25 28° 295° (WNW) 18:47:12 437.445
XW-2B 13 Dec 18:44:09 18:45:36 12° 272° (W) 18:47:04 145.730 - 145.750
SO-50 13 Dec 18:47:06 18:49:30 14° 339° (NNW) 18:51:54 436.795
ZACube-1 13 Dec 18:47:40 18:51:28 37° 69° (ENE) 18:55:19 437.345
SEEDS 13 Dec 18:56:11 19:00:19 55° 260° (W) 19:04:32 437.485
Oscar 11 13 Dec 19:08:59 19:12:58 38° 69° (ENE) 19:16:59 .
CUTE-I 13 Dec 19:13:16 19:16:05 14° 273° (W) 19:18:55 437.470
CUTE 1.7 + AOD 2 13 Dec 19:18:12 19:21:31 22° 268° (W) 19:24:51 437.475
AAUSAT CUBESAT 2 13 Dec 19:18:15 19:22:25 71° 258° (WSW) 19:26:37 437.432
AO-73 13 Dec 19:21:56 19:26:02 75° 75° (ENE) 19:30:12 145.935
RS-15 13 Dec 19:23:37 19:34:31 35° 356° (N) 19:45:03 29.354- 29.394
STARS 13 Dec 19:25:52 19:29:20 24° 297° (WNW) 19:32:48 437.465
XW-2A 13 Dec 19:26:08 19:29:22 46° 260° (W) 19:32:38 145.665 - 145.685
O/OREOS (USA 219) 13 Dec 19:34:59 19:37:55 17° 260° (W) 19:40:50 437.305
STRAND 1 13 Dec 19:35:30 19:40:33 60° 101° (ESE) 19:45:35 437.568
PCSat 13 Dec 19:39:46 19:45:11 77° 305° (NW) 19:50:39 145.827
EO-88 13 Dec 19:52:16 19:53:01 10° 60° (ENE) 19:53:47 145.990 - 145.960
CUBEBUG 2 13 Dec 19:56:40 19:59:02 15° 270° (W) 20:01:24 437.445
UWE-3 13 Dec 19:57:14 20:00:35 23° 267° (W) 20:03:56 435.000/436.395/437.385
FO-29 13 Dec 20:04:00 20:10:40 41° 94° (E) 20:16:33 435.910
HO-68 13 Dec 20:12:06 20:16:20 16° 274° (W) 20:20:37 435.675
ZACube-1 13 Dec 20:24:37 20:27:53 22° 267° (W) 20:31:10 437.345
DELFI C3 13 Dec 20:29:38 20:33:32 55° 72° (ENE) 20:37:28 145.870
BEESAT 3 13 Dec 20:36:35 20:40:30 58° 123° (ESE) 20:44:26 437.485
Oscar 11 13 Dec 20:45:43 20:49:13 24° 267° (W) 20:52:44 .
Max Valier Satellite 13 Dec 20:52:09 20:55:46 67° 75° (ENE) 20:59:26 145.860
AO-73 13 Dec 21:01:28 21:02:49 11° 273° (W) 21:04:10 145.935
ESTCUBE 1 13 Dec 21:09:04 21:11:03 13° 57° (ENE) 21:13:03 437.505/2401.250
BEESAT 2 13 Dec 21:14:16 21:18:04 42° 120° (ESE) 21:21:55 435.950
STRAND 1 13 Dec 21:15:29 21:19:20 22° 300° (WNW) 21:23:10 437.568
TIGRISAT 13 Dec 21:21:46 21:25:27 27° 95° (E) 21:29:10 435.000
EO-88 13 Dec 21:22:26 21:26:04 77° 258° (WSW) 21:29:45 145.990 - 145.960
UNISAT 6 13 Dec 21:24:39 21:28:31 31° 96° (E) 21:32:26 437.425
PCSat 13 Dec 21:25:30 21:29:29 20° 327° (NNW) 21:33:29 145.827
RS-15 13 Dec 21:39:11 21:50:44 47° 29° (NNE) 22:01:40 29.354- 29.394
FO-29 13 Dec 21:49:03 21:55:45 43° 297° (WNW) 22:01:42 435.910
LO-87 13 Dec 21:56:24 21:59:37 34° 70° (ENE) 22:02:51 145.935 - 145.965
DELFI C3 13 Dec 22:06:20 22:08:37 15° 270° (W) 22:10:53 145.870
SO-50 13 Dec 22:11:07 22:14:20 18° 28° (NNE) 22:17:34 436.795
BEESAT 3 13 Dec 22:15:08 22:18:20 22° 323° (NW) 22:21:33 437.485
AO-85 13 Dec 22:16:25 22:20:11 46° 121° (ESE) 22:24:12 145.980
PRISM 13 Dec 22:21:00 22:24:46 34° 97° (E) 22:28:29 437.425
AIST 2D 13 Dec 22:28:45 22:30:55 15° 91° (E) 22:33:04 435.315
Max Valier Satellite 13 Dec 22:29:28 22:30:02 10° 272° (W) 22:30:36 145.860
ESTCUBE 1 13 Dec 22:42:37 22:47:09 88° 80° (E) 22:51:43 437.505/2401.250
VELOX 1 13 Dec 22:45:23 22:48:27 18° 61° (ENE) 22:51:30 145.980
BEESAT 2 13 Dec 22:52:23 22:55:55 28° 320° (NW) 22:59:29 435.950
TIGRISAT 13 Dec 22:58:16 23:02:11 34° 292° (WNW) 23:06:09 435.000
UNISAT 6 13 Dec 23:01:25 23:05:11 30° 293° (WNW) 23:09:01 437.425
QB50P2 13 Dec 23:02:56 23:05:27 15° 90° (E) 23:07:56 145.880/145.840
DUCHIFAT 1 13 Dec 23:10:07 23:11:53 12° 89° (E) 23:13:40 145.980
LO-87 13 Dec 23:30:37 23:33:07 18° 267° (W) 23:35:38 145.935 - 145.965
SPROUT 13 Dec 23:31:21 23:35:34 72° 73° (ENE) 23:39:49 437.525
NANOSAT C BR1 13 Dec 23:34:40 23:38:11 25° 94° (E) 23:41:40 145.865
FO-29 13 Dec 23:37:02 23:38:49 11° 320° (NW) 23:40:35 435.910
DX 1 13 Dec 23:44:03 23:46:54 17° 60° (ENE) 23:49:46 434.975-435.025
EO-79 13 Dec 23:49:05 23:53:04 39° 98° (E) 23:57:02 145.935-145.965
SO-50 13 Dec 23:50:57 23:55:36 70° 49° (NE) 00:00:18 436.795
RS-15 13 Dec 23:52:25 00:04:18 78° 238° (WSW) 00:15:30 29.354- 29.394
FALCONSAT 3 13 Dec 23:54:51 23:56:01 11° 172° (S) 23:57:10 435.103
PRISM 13 Dec 23:56:29 23:59:53 25° 295° (WNW) 00:03:15 437.425
AO-85 13 Dec 23:57:22 00:00:48 26° 323° (NW) 00:04:26 145.980
AIST 2D 14 Dec 00:00:55 00:04:17 41° 288° (WNW) 00:07:38 435.315
POLYITAN 1 14 Dec 00:11:43 00:15:56 69° 102° (ESE) 00:20:09 437.675
VELOX 1 14 Dec 00:20:04 00:24:27 59° 258° (WSW) 00:28:53 145.980
ESTCUBE 1 14 Dec 00:23:14 00:24:36 11° 274° (W) 00:25:59 437.505/2401.250
Gurwin Techsat 1B 14 Dec 00:30:51 00:32:27 11° 85° (E) 00:34:02 435.225
QB50P2 14 Dec 00:37:26 00:41:36 58° 288° (WNW) 00:45:44 145.880/145.840
DUCHIFAT 1 14 Dec 00:43:51 00:48:02 71° 286° (WNW) 00:52:12 145.980
BEESAT 14 Dec 00:50:49 00:51:26 10° 52° (NE) 00:52:02 436.000
